Fergus Falls, MN

5:07 PM CDT on September 19, 2017 (GMT -0500)
Fergus Falls Municipal-Mickelson

Weather History for KFFM - April, 2013

Change the Weather History Date:

Friday, April 12, 2013

  Actual Average Record
Temperature  
Mean Temperature 30 °F -  
Max Temperature 33 °F 49 °F 75 °F (1968)
Min Temperature 26 °F 31 °F 10 °F (1950)
Degree Days  
Heating Degree Days 36    
Moisture  
Dew Point 25 °F    
Average Humidity 83    
Maximum Humidity 100    
Minimum Humidity 69    
Precipitation  
Precipitation 0.00 in - - ()
Sea Level Pressure  
Sea Level Pressure 29.82 in    
Wind  
Wind Speed 9 mph (North)    
Max Wind Speed 16 mph    
Max Gust Speed 21 mph    
Visibility 7 miles    
Events Snow    
Averages and records for this station are not official NWS values.
T = Trace of Precipitation, MM = Missing Value Source: NWS Daily Summary

Daily Weather History Graph

Daily Weather History Graph

Search for Another Location

Airport or City:

Trip Planner

Search our weather history database for the weather conditions in past years. The results will help you decide how hot, cold, wet, or windy it might be!

Date:

Astronomy

Apr. 12, 2013 Rise Set
Actual Time 6:42 AM CDT 8:08 PM CDT
Civil Twilight 6:11 AM CDT 8:39 PM CDT
Nautical Twilight 5:34 AM CDT 9:17 PM CDT
Astronomical Twilight 4:53 AM CDT 9:58 PM CDT
Moon 7:46 AM CDT (4/12) 10:49 PM CDT (4/12)
Length of Visible Light 14h 28m
Length of Day
13h 25m
Waxing Crescent, 5% of the Moon is Illuminated
Apr 12
Waxing Crescent
Apr 18
First Quarter
Apr 25
Full
May 2
Last Quarter
May 9
New

Hourly Weather History & Observations

Time (CDT) Temp. Windchill Dew Point Humidity Pressure Visibility Wind Dir Wind Speed Gust Speed Precip Events Conditions
12:13 AM 28.4 °F 17.5 °F 23.0 °F 80% 29.80 in 10.0 mi ENE 13.8 mph - N/A Snow Light Snow
12:32 AM 28.4 °F 20.4 °F 23.0 °F 80% 29.80 in 10.0 mi ENE 8.1 mph - N/A Snow Light Snow
12:53 AM 28.4 °F 21.2 °F 23.0 °F 80% 29.80 in 10.0 mi ENE 6.9 mph - N/A Snow Light Snow
1:13 AM 28.4 °F 20.4 °F 23.0 °F 80% 29.81 in 7.0 mi ENE 8.1 mph - N/A Snow Light Snow
1:32 AM 28.4 °F 22.2 °F 24.8 °F 86% 29.81 in 7.0 mi NNE 5.8 mph - N/A Snow Light Snow
1:53 AM 28.4 °F 22.2 °F 24.8 °F 86% 29.80 in 5.0 mi NE 5.8 mph - N/A Snow Light Snow
2:13 AM 28.4 °F 24.6 °F 24.8 °F 86% 29.80 in 5.0 mi NNE 3.5 mph - N/A Snow Light Snow
2:33 AM 28.4 °F 23.3 °F 24.8 °F 86% 29.79 in 10.0 mi NNE 4.6 mph - N/A Snow Light Snow
2:53 AM 28.4 °F 23.3 °F 24.8 °F 86% 29.79 in 10.0 mi NNE 4.6 mph - N/A   Overcast
3:13 AM 28.4 °F 23.3 °F 24.8 °F 86% 29.79 in 10.0 mi NNE 4.6 mph - N/A   Overcast
3:33 AM 28.4 °F 23.3 °F 24.8 °F 86% 29.78 in 10.0 mi NNE 4.6 mph - N/A   Overcast
3:53 AM 28.4 °F 23.3 °F 23.0 °F 80% 29.78 in 10.0 mi NNE 4.6 mph - N/A   Overcast
4:13 AM 28.4 °F 22.2 °F 23.0 °F 80% 29.78 in 10.0 mi NNE 5.8 mph - N/A   Overcast
4:33 AM 26.6 °F 21.2 °F 23.0 °F 86% 29.78 in 10.0 mi NNE 4.6 mph - N/A   Overcast
4:53 AM 26.6 °F 19.1 °F 23.0 °F 86% 29.78 in 10.0 mi NNE 6.9 mph - N/A   Overcast
5:13 AM 26.6 °F 19.1 °F 23.0 °F 86% 29.78 in 10.0 mi North 6.9 mph - N/A   Overcast
5:33 AM 26.6 °F 21.2 °F 23.0 °F 86% 29.79 in 10.0 mi North 4.6 mph - N/A   Overcast
5:53 AM 26.6 °F 21.2 °F 21.2 °F 80% 29.78 in 10.0 mi North 4.6 mph - N/A   Overcast
6:13 AM 26.6 °F 21.2 °F 21.2 °F 80% 29.78 in 10.0 mi North 4.6 mph - N/A   Overcast
6:33 AM 26.6 °F 20.0 °F 21.2 °F 80% 29.78 in 10.0 mi North 5.8 mph - N/A   Overcast
6:53 AM 26.6 °F 21.2 °F 21.2 °F 80% 29.78 in 10.0 mi North 4.6 mph - N/A   Overcast
7:13 AM 26.6 °F 20.0 °F 21.2 °F 80% 29.79 in 4.0 mi NNE 5.8 mph - N/A Snow Light Snow
7:33 AM 26.6 °F 20.0 °F 23.0 °F 86% 29.79 in 4.0 mi NNE 5.8 mph - N/A Snow Light Snow
7:53 AM 26.6 °F 20.0 °F 23.0 °F 86% 29.79 in 7.0 mi NNE 5.8 mph - N/A Snow Light Snow
8:13 AM 26.6 °F 20.0 °F 23.0 °F 86% 29.79 in 10.0 mi NE 5.8 mph - N/A   Mostly Cloudy
8:33 AM 26.6 °F 16.8 °F 23.0 °F 86% 29.79 in 10.0 mi NE 10.4 mph - N/A   Mostly Cloudy
8:53 AM 28.4 °F 19.7 °F 23.0 °F 80% 29.79 in 10.0 mi NE 9.2 mph - N/A   Mostly Cloudy
9:13 AM 28.4 °F 19.1 °F 21.2 °F 74% 29.79 in 10.0 mi ENE 10.4 mph 17.3 mph N/A   Overcast
9:33 AM 30.2 °F 20.8 °F 21.2 °F 69% 29.79 in 10.0 mi ENE 11.5 mph - N/A   Overcast
9:53 AM 30.2 °F 21.3 °F 23.0 °F 75% 29.79 in 10.0 mi ENE 10.4 mph 17.3 mph N/A Snow Light Snow
10:13 AM 30.2 °F 21.9 °F 23.0 °F 75% 29.79 in 10.0 mi ENE 9.2 mph - N/A   Overcast
10:33 AM 30.2 °F 21.9 °F 23.0 °F 75% 29.79 in 10.0 mi NE 9.2 mph - N/A   Scattered Clouds
10:53 AM 30.2 °F 22.6 °F 23.0 °F 75% 29.80 in 10.0 mi NE 8.1 mph - N/A   Mostly Cloudy
11:12 AM 30.2 °F 21.9 °F 23.0 °F 75% 29.80 in 10.0 mi ENE 9.2 mph - N/A   Overcast
11:33 AM 30.2 °F 21.9 °F 24.8 °F 80% 29.81 in 3.0 mi NE 9.2 mph - N/A Snow Light Snow
11:53 AM 30.2 °F 23.4 °F 24.8 °F 80% 29.81 in 5.0 mi NNE 6.9 mph - N/A Snow Light Snow
12:12 PM 32.0 °F 24.8 °F 24.8 °F 75% 29.81 in 5.0 mi ENE 8.1 mph - N/A   Haze
12:33 PM 32.0 °F 25.6 °F 24.8 °F 75% 29.81 in 5.0 mi NE 6.9 mph - N/A Snow Light Snow
12:53 PM 32.0 °F 25.6 °F 23.0 °F 69% 29.81 in 10.0 mi NE 6.9 mph - N/A   Overcast
1:12 PM 32.0 °F 28.7 °F 24.8 °F 75% 29.81 in 4.0 mi NNE 3.5 mph - N/A Snow Light Snow
1:33 PM 32.0 °F 26.4 °F 24.8 °F 75% 29.81 in 3.0 mi NNW 5.8 mph - N/A Snow Light Snow
1:53 PM 32.0 °F 27.5 °F 26.6 °F 80% 29.81 in 3.0 mi NNW 4.6 mph - N/A Snow Light Snow
2:13 PM 30.2 °F 22.6 °F 26.6 °F 86% 29.81 in 3.0 mi North 8.1 mph - N/A Snow Light Snow
2:33 PM 32.0 °F 22.1 °F 26.6 °F 80% 29.81 in 3.0 mi NNW 13.8 mph - N/A Snow Light Snow
2:53 PM 33.8 °F 24.8 °F 28.4 °F 81% 29.82 in 5.0 mi NNW 12.7 mph 17.3 mph N/A Snow Light Snow
3:13 PM 32.0 °F 22.1 °F 26.6 °F 80% 29.82 in 5.0 mi North 13.8 mph - N/A Snow Light Snow
3:33 PM 32.0 °F 23.0 °F 26.6 °F 80% 29.82 in 5.0 mi NNW 11.5 mph - N/A Snow Light Snow
3:53 PM 32.0 °F 21.2 °F 26.6 °F 80% 29.82 in 2.5 mi NNW 16.1 mph 20.7 mph N/A Snow Light Snow
4:13 PM 32.0 °F 23.6 °F 26.6 °F 80% 29.82 in 3.0 mi North 10.4 mph - N/A Snow Light Snow
4:33 PM 32.0 °F 22.5 °F 26.6 °F 80% 29.82 in 4.0 mi North 12.7 mph 19.6 mph N/A Snow Light Snow
4:53 PM 32.0 °F 21.6 °F 26.6 °F 80% 29.83 in 2.5 mi NNW 15.0 mph 20.7 mph N/A Snow Light Snow
5:13 PM 30.2 °F 20.8 °F 26.6 °F 86% 29.83 in 4.0 mi North 11.5 mph 17.3 mph N/A Snow Light Snow
5:33 PM 30.2 °F 19.8 °F 26.6 °F 86% 29.83 in 7.0 mi North 13.8 mph 17.3 mph N/A Snow Light Snow
5:53 PM 30.2 °F 20.2 °F 26.6 °F 86% 29.84 in 7.0 mi North 12.7 mph 18.4 mph N/A Snow Light Snow
6:13 PM 30.2 °F 20.8 °F 26.6 °F 86% 29.84 in 5.0 mi North 11.5 mph 16.1 mph N/A Snow Light Snow
6:33 PM 30.2 °F 20.2 °F 26.6 °F 86% 29.85 in 7.0 mi North 12.7 mph - N/A   Scattered Clouds
6:53 PM 30.2 °F 21.3 °F 24.8 °F 80% 29.85 in 10.0 mi NNW 10.4 mph - N/A   Scattered Clouds
7:13 PM 30.2 °F 20.2 °F 24.8 °F 80% 29.85 in 10.0 mi NNW 12.7 mph - N/A   Mostly Cloudy
7:33 PM 30.2 °F 21.3 °F 24.8 °F 80% 29.86 in 10.0 mi NNW 10.4 mph - N/A   Scattered Clouds
7:53 PM 30.2 °F 20.8 °F 26.6 °F 86% 29.86 in 10.0 mi NW 11.5 mph - N/A   Mostly Cloudy
8:13 PM 28.4 °F 17.5 °F 26.6 °F 93% 29.86 in 10.0 mi NNW 13.8 mph - N/A   Mostly Cloudy
8:33 PM 28.4 °F 18.5 °F 26.6 °F 93% 29.86 in 5.0 mi NNW 11.5 mph - N/A   Overcast
8:53 PM 28.4 °F 18.5 °F 26.6 °F 93% 29.87 in 10.0 mi NNW 11.5 mph - N/A   Overcast
9:13 PM 28.4 °F 18.5 °F 28.4 °F 100% 29.87 in 5.0 mi NNW 11.5 mph - N/A Snow Light Snow
9:33 PM 28.4 °F 19.7 °F 26.6 °F 93% 29.87 in 10.0 mi NNW 9.2 mph - N/A   Overcast
9:52 PM 28.4 °F 19.1 °F 26.6 °F 93% 29.88 in 10.0 mi NNW 10.4 mph - N/A   Overcast
10:13 PM 28.4 °F 19.1 °F 26.6 °F 93% 29.88 in 10.0 mi NNW 10.4 mph - N/A Snow Light Snow
10:33 PM 28.4 °F 18.0 °F 26.6 °F 93% 29.88 in 2.5 mi NNW 12.7 mph - N/A Snow Light Snow
10:52 PM 28.4 °F 19.1 °F 26.6 °F 93% 29.88 in 2.0 mi NW 10.4 mph - N/A Snow Light Snow
11:13 PM 28.4 °F 18.5 °F 26.6 °F 93% 29.88 in 2.5 mi NW 11.5 mph - N/A Snow Light Snow
11:33 PM 28.4 °F 19.1 °F 26.6 °F 93% 29.88 in 4.0 mi NW 10.4 mph - N/A Snow Light Snow
11:53 PM 28.4 °F 18.5 °F 26.6 °F 93% 29.87 in 2.5 mi NW 11.5 mph - N/A Snow Light Snow